Location: Красноярск
(56.0091°N, 92.8725°E)
Time: 11:59:03
(UTC+07:00)

ISS - Pass Details

Date: 11 July 2022
Orbit: 412 x 419 km, 51.6° (Epoch: 09 August)

Event Time Altitude Azimuth Distance (km) Brightness Sun altitude
Exits shadow 00:46:33 14° 218° (SW) 1,277 -1.8 -11.8°
Drops below altitude 10° 00:51:49 10° 101° (ESE) 1,492 -1.1 -11.8°
Enters shadow 02:03:31 -38° 268° (W) 8,550 2.8 -10.5°
Maximum altitude 02:25:09 39° 183° (S) 644 -3.3 -9.5°
